[[{"header":{"parameterUnit":"m.s-1","parameterCategory":1,"la1":30.2991,"la2":30.254,"lo1":-89.0895,"lo2":-89.0444,"dy":0.0017,"dx":0.0017,"nx":28,"ny":28,"refTime":"2024-09-26T03:00:00:Z","depth":0,"parameterNumber":2,"parameterNumberName":"U-component_of_WINDS"},"data":[0,0,0,0,0,0,0,0,0,0,0,0,0,0,0,0,0,0,0,0,0,0,0,0,0,0,0,0,0,0,0,0,0,0,0,0,0,0,0,0,0,0,0,0,0,0,0,0,0,0,0,0,0,0,0,0,0,0,-1.7602,-1.7603,0,-1.7709,-1.7711,-1.7712,-1.7706,-1.7705,-1.7703,-1.7702,-1.7814,-1.7819,-1.7823,0,0,0,0,0,0,0,0,0,0,0,0,0,-1.7395,-1.7399,-1.7602,-1.7603,-1.7605,-1.7709,-1.7711,-1.7712,-1.7707,-1.7705,-1.7703,-1.7701,-1.7813,-1.7818,-1.7823,0,0,0,0,0,0,0,0,0,0,0,0,0,-1.7492,-1.74,-1.7602,-1.7615,-1.7617,-1.7709,-1.7711,-1.7712,-1.7707,-1.7705,-1.7702,-1.77,-1.7811,-1.7818,-1.7824,-1.7912,0,0,-1.7845,-1.7847,0,0,0,0,0,0,0,0,-1.7486,-1.75,-1.7611,-1.7614,-1.7616,-1.7692,-1.7679,-1.7779,-1.7708,-1.7673,-1.7702,-1.7699,-1.7776,-1.7785,-1.781,-1.7917,-1.7922,-1.7845,-1.7849,-1.7852,-1.7854,0,0,0,0,0,0,0,-1.748,-1.7495,-1.7645,-1.7613,-1.7616,-1.7616,-1.7627,-1.7698,-1.7736,-1.7676,-1.7676,-1.7688,-1.7777,-1.7804,-1.7813,-1.7923,-1.7845,-1.7851,-1.7855,-1.7858,-1.8107,-1.811,0,0,0,0,0,0,-1.747,-1.7489,-1.7641,-1.7648,-1.7544,-1.7621,-1.7634,-1.767,-1.7735,-1.7743,-1.769,-1.7687,-1.7794,-1.7805,-1.7817,-1.7924,-1.7852,-1.7858,-1.7862,-1.8105,-1.8108,-1.8111,0,0,0,0,0,0,-1.7465,-1.7483,-1.7637,-1.7569,-1.7588,-1.7627,-1.7668,-1.7673,-1.7701,-1.7746,-1.7753,-1.7711,-1.7792,-1.7808,-1.7888,-1.7928,-1.7861,-1.7867,-1.8101,-1.8105,-1.8109,-1.8139,0,0,0,0,0,0,-1.746,-1.7482,-1.7515,-1.7569,-1.7592,-1.7706,-1.7671,-1.7677,-1.7712,-1.771,-1.7767,-1.7775,-1.7792,-1.7878,-1.7895,-1.7936,-1.7872,-1.8098,-1.8103,-1.8108,-1.8134,-1.8143,-1.8151,0,0,0,0,0,-1.7452,-1.752,-1.7517,-1.7535,-1.7634,-1.7708,-1.7721,-1.7738,-1.7715,-1.7749,-1.7778,-1.7773,-1.792,-1.7886,-1.7905,-1.7949,-1.8096,-1.8102,-1.8108,-1.8131,-1.8141,-1.815,0,0,0,0,0,0,-1.747,-1.7527,-1.7524,-1.7611,-1.7655,-1.7707,-1.775,-1.7749,-1.78,-1.7796,-1.7816,-1.783,-1.791,-1.7937,-1.7898,-1.8037,-1.8005,-1.8015,-1.8016,-1.8027,-1.8035,-1.8027,-1.7878,0,0,0,0,0,-1.7484,-1.7538,-1.7585,-1.7658,-1.7679,-1.7711,-1.7744,-1.7753,-1.78,-1.7818,-1.7853,-1.7899,-1.7955,-1.7992,-1.8047,-1.8138,-1.8151,-1.8177,-1.8185,-1.8191,-1.82,-1.8251,-1.8263,-1.813,-1.813,-1.813,0,0,-1.7514,-1.7551,-1.7585,-1.7662,-1.7697,-1.7754,-1.7727,-1.7788,-1.7831,-1.7828,-1.7906,-1.7933,-1.7985,-1.8071,-1.8111,-1.8096,-1.824,-1.8199,-1.8204,-1.8209,-1.8258,-1.8271,-1.8282,-1.8134,-1.8133,-1.8133,0,0,-1.7597,-1.763,-1.7694,-1.7729,-1.7782,-1.7802,-1.7818,-1.787,-1.7888,-1.7966,-1.7965,-1.8016,-1.8113,-1.8151,-1.8183,-1.8279,-1.8277,-1.8296,-1.834,-1.8388,-1.8399,-1.8408,-1.8444,-1.8456,-1.8305,-1.8305,-1.8305,0,-1.7627,-1.7712,-1.7728,-1.7789,-1.7824,-1.7822,-1.7888,-1.7921,-1.799,-1.8014,-1.7996,-1.8118,-1.8153,-1.8248,-1.8271,-1.8297,-1.8315,-1.8291,-1.8396,-1.8406,-1.8415,-1.8449,-1.8462,-1.8307,-1.8307,-1.8306,-1.8306,0,-1.7748,-1.7807,-1.7852,-1.7917,-1.7956,-1.8019,-1.8045,-1.8083,-1.8089,-1.8111,-1.8191,-1.8233,-1.8296,-1.8319,-1.8326,-1.8415,-1.8405,-1.8391,-1.836,-1.8429,-1.8461,-1.8475,-1.831,-1.8309,-1.8308,-1.8308,0,0,-1.7847,-1.7918,-1.7935,-1.7964,-1.8022,-1.8068,-1.8131,-1.8192,-1.8225,-1.8271,-1.8326,-1.8407,-1.8395,-1.8431,-1.8442,-1.8484,-1.8559,-1.8466,-1.8467,-1.8483,-1.8661,-1.8672,-1.8686,-1.8557,-1.856,-1.8562,-1.8657,0,-1.7937,-1.8048,-1.8064,-1.8163,-1.8218,-1.8217,-1.8272,-1.8313,-1.8336,-1.8386,-1.8411,-1.8469,-1.8448,-1.847,-1.8512,-1.8541,-1.8596,-1.8534,-1.8609,-1.8611,-1.8597,-1.8703,-1.8715,-1.8803,-1.867,-1.8672,-1.8673,0,-1.8057,-1.8106,-1.821,-1.826,-1.8284,-1.8333,-1.839,-1.8438,-1.8485,-1.8498,-1.8538,-1.8543,-1.861,-1.8574,-1.8667,-1.8625,-1.8656,-1.8675,-1.8678,-1.8687,-1.8647,-1.8716,-1.8831,-1.8845,-1.8693,-1.8692,-1.869,0,-1.812,-1.8212,-1.8286,-1.8311,-1.8371,-1.8406,-1.8432,-1.8477,-1.8513,-1.8563,-1.8586,-1.8643,-1.8675,-1.8719,-1.874,-1.8712,-1.8831,-1.8798,-1.8845,-1.8845,-1.8872,-1.887,-1.8995,-1.889,-1.8889,-1.8889,-1.8889,0,-1.822,-1.8284,-1.8315,-1.8361,-1.8433,-1.845,-1.8521,-1.8547,-1.8586,-1.8638,-1.864,-1.8689,-1.8712,-1.8765,-1.8781,-1.8856,-1.887,-1.8883,-1.8887,-1.8884,-1.8882,-1.8905,-1.89,-1.8893,-1.8892,-1.8891,-1.8891,0,-1.8303,-1.8326,-1.8407,-1.8457,-1.8471,-1.8521,-1.8564,-1.8609,-1.863,-1.8695,-1.8712,-1.8746,-1.8808,-1.8832,-1.8908,-1.8919,-1.9005,-1.9003,-1.8989,-1.899,-1.9036,-1.9032,-1.9182,-1.9203,-1.9083,-1.9084,-1.9085,0,-1.8365,-1.8414,-1.8469,-1.8503,-1.853,-1.8585,-1.8621,-1.864,-1.8677,-1.8734,-1.8773,-1.8834,-1.8884,-1.8982,-1.9014,-1.9072,-1.9073,-1.9121,-1.9082,-1.9077,-1.9075,-1.9072,-1.9077,-1.9129,-1.913,-1.9131,-1.9132,0,-1.8474,-1.8483,-1.8535,-1.859,-1.8633,-1.8678,-1.8721,-1.8749,-1.8775,-1.8817,-1.8879,-1.8918,-1.8994,-1.9055,-1.9114,-1.9143,-1.9142,-1.9144,-1.9158,-1.9156,-1.9146,-1.9153,-1.901,-1.9141,-1.914,-1.9139,-1.9139,-1.9138,-1.855,-1.8594,-1.8639,-1.8696,-1.873,-1.8771,-1.8815,-1.8842,-1.8894,-1.8957,-1.8965,-1.9032,-1.9078,-1.9158,-1.9188,-1.9241,-1.9229,-1.9249,-1.9255,-1.926,-1.9263,-1.9136,-1.9252,-1.9252,-1.9252,-1.9252,-1.9251,0,-1.866,-1.8689,-1.8741,-1.8801,-1.8846,-1.884,-1.8888,-1.8927,-1.8985,-1.9028,-1.9076,-1.9148,-1.9207,-1.9243,-1.9303,-1.9338,-1.934,-1.9354,-1.9352,-1.9358,-1.9271,-1.9253,-1.9352,-1.9352,-1.9351,-1.9351,-1.9351,-1.9351,-1.8723,-1.8797,-1.8811,-1.8902,-1.893,-1.8995,-1.9023,-1.9061,-1.9095,-1.9174,-1.9223,-1.9246,-1.9286,-1.9348,-1.9402,-1.9411,-1.9434,-1.9449,-1.9457,-1.9375,-1.9365,-1.9355,-1.9338,-1.9453,-1.9453,-1.9541,-1.9542,-1.9542]},{"header":{"parameterUnit":"m.s-1","parameterCategory":1,"la1":30.2991,"la2":30.254,"lo1":-89.0895,"lo2":-89.0444,"dy":0.0017,"dx":0.0017,"nx":28,"ny":28,"refTime":"2024-09-26T03:00:00:Z","depth":0,"parameterNumber":3,"parameterNumberName":"V-component_of_WINDS"},"data":[0,0,0,0,0,0,0,0,0,0,0,0,0,0,0,0,0,0,0,0,0,0,0,0,0,0,0,0,0,0,0,0,0,0,0,0,0,0,0,0,0,0,0,0,0,0,0,0,0,0,0,0,0,0,0,0,0,0,-8.0236,-8.0237,0,-8.0327,-8.0328,-8.0329,-8.0225,-8.0221,-8.0217,-8.0214,-8.0301,-8.0307,-8.0313,0,0,0,0,0,0,0,0,0,0,0,0,0,-7.9969,-7.9974,-8.0236,-8.0237,-8.0238,-8.0327,-8.0328,-8.0329,-8.0226,-8.0221,-8.0216,-8.0212,-8.0299,-8.0306,-8.0313,0,0,0,0,0,0,0,0,0,0,0,0,0,-8.0075,-7.9976,-8.0236,-8.0198,-8.0195,-8.0326,-8.0328,-8.0329,-8.0227,-8.0221,-8.0215,-8.021,-8.0297,-8.0306,-8.0314,-8.0486,0,0,-8.0342,-8.0345,0,0,0,0,0,0,0,0,-8.0069,-8.0084,-8.0202,-8.0201,-8.0198,-8.0259,-8.0265,-8.0382,-8.0228,-8.0215,-8.0214,-8.0207,-8.0291,-8.03,-8.033,-8.049,-8.0494,-8.0342,-8.0348,-8.0352,-8.0354,0,0,0,0,0,0,0,-8.0061,-8.008,-8.0272,-8.0204,-8.0201,-8.0174,-8.0183,-8.0287,-8.0284,-8.0215,-8.0208,-8.0221,-8.0289,-8.0322,-8.0331,-8.0495,-8.0342,-8.035,-8.0356,-8.0359,-8.0801,-8.0807,0,0,0,0,0,0,-8.0059,-8.0075,-8.0269,-8.0274,-8.0118,-8.0184,-8.0193,-8.0245,-8.0283,-8.0283,-8.0225,-8.0215,-8.0309,-8.0321,-8.0334,-8.0538,-8.0352,-8.036,-8.0365,-8.0794,-8.0802,-8.0809,0,0,0,0,0,0,-8.0054,-8.0078,-8.0265,-8.0173,-8.0194,-8.0195,-8.0253,-8.025,-8.0282,-8.0291,-8.0289,-8.026,-8.0305,-8.0321,-8.0449,-8.0539,-8.0364,-8.0372,-8.0787,-8.0797,-8.0806,-8.0947,0,0,0,0,0,0,-8.0047,-8.0076,-8.0143,-8.0175,-8.02,-8.0381,-8.0259,-8.0256,-8.0299,-8.0286,-8.0322,-8.0323,-8.0302,-8.0437,-8.0458,-8.0549,-8.0379,-8.0779,-8.0791,-8.0802,-8.0935,-8.096,-8.0983,0,0,0,0,0,-8.0038,-8.0178,-8.0147,-8.0171,-8.0283,-8.0387,-8.0401,-8.0375,-8.0306,-8.0372,-8.0378,-8.0321,-8.0526,-8.0451,-8.0474,-8.0569,-8.0773,-8.0788,-8.0802,-8.0924,-8.0955,-8.0982,0,0,0,0,0,0,-8.0154,-8.0181,-8.0147,-8.0302,-8.0343,-8.0369,-8.0451,-8.041,-8.0469,-8.0455,-8.042,-8.0429,-8.0565,-8.0579,-8.0495,-8.0737,-8.0638,-8.0658,-8.0723,-8.0753,-8.0777,-8.077,-8.0386,0,0,0,0,0,-8.0198,-8.0281,-8.03,-8.0435,-8.0457,-8.0452,-8.0495,-8.0473,-8.0513,-8.0529,-8.0543,-8.0583,-8.0656,-8.0705,-8.0773,-8.0936,-8.0942,-8.1012,-8.1036,-8.1056,-8.1074,-8.1161,-8.1193,-8.0856,-8.0856,-8.0856,0,0,-8.0289,-8.0314,-8.0369,-8.0459,-8.0488,-8.0574,-8.0466,-8.0561,-8.0624,-8.0543,-8.0665,-8.0678,-8.0719,-8.0866,-8.0931,-8.0882,-8.1168,-8.1074,-8.109,-8.1097,-8.1179,-8.1211,-8.1239,-8.0866,-8.0864,-8.0862,0,0,-8.0499,-8.0527,-8.0643,-8.0675,-8.0721,-8.0716,-8.0744,-8.0777,-8.0783,-8.0905,-8.0846,-8.0919,-8.1046,-8.1079,-8.1112,-8.1336,-8.1286,-8.1358,-8.1484,-8.157,-8.1597,-8.162,-8.17,-8.1729,-8.1376,-8.1376,-8.1376,0,-8.0606,-8.0735,-8.0707,-8.0808,-8.0849,-8.0781,-8.0898,-8.0929,-8.0994,-8.1024,-8.0968,-8.1126,-8.1149,-8.1303,-8.1358,-8.1387,-8.1417,-8.1354,-8.1595,-8.1618,-8.164,-8.1716,-8.1746,-8.1385,-8.1384,-8.1383,-8.1382,0,-8.0865,-8.0955,-8.1043,-8.111,-8.1161,-8.1269,-8.1256,-8.1311,-8.1284,-8.1284,-8.141,-8.1436,-8.1508,-8.1542,-8.1516,-8.1693,-8.1661,-8.1601,-8.1501,-8.1681,-8.1752,-8.1781,-8.1397,-8.1394,-8.1391,-8.1389,0,0,-8.115,-8.1202,-8.1235,-8.1265,-8.1311,-8.138,-8.1484,-8.1557,-8.1604,-8.1651,-8.1737,-8.1847,-8.1792,-8.183,-8.1806,-8.1882,-8.2058,-8.1812,-8.1813,-8.1858,-8.2254,-8.23,-8.2334,-8.2025,-8.2031,-8.2035,-8.2251,0,-8.1362,-8.1545,-8.1524,-8.1698,-8.1781,-8.1718,-8.1809,-8.1846,-8.185,-8.1919,-8.1922,-8.2,-8.1922,-8.1945,-8.2016,-8.2022,-8.2137,-8.2006,-8.2104,-8.2108,-8.2097,-8.2371,-8.2419,-8.2622,-8.2279,-8.2283,-8.2287,0,-8.1633,-8.1693,-8.1877,-8.1912,-8.1945,-8.2028,-8.2093,-8.216,-8.2201,-8.2198,-8.2242,-8.2205,-8.2308,-8.2206,-8.2348,-8.2259,-8.2297,-8.2306,-8.2313,-8.2322,-8.2209,-8.2387,-8.2685,-8.2716,-8.233,-8.2326,-8.2323,0,-8.1824,-8.195,-8.2077,-8.2104,-8.2147,-8.2207,-8.2227,-8.2263,-8.2308,-8.2364,-8.2393,-8.2459,-8.2496,-8.2548,-8.253,-8.2457,-8.2675,-8.2572,-8.2675,-8.2676,-8.2724,-8.2721,-8.3033,-8.2749,-8.2748,-8.2748,-8.2747,0,-8.2063,-8.2178,-8.2163,-8.2241,-8.2368,-8.2341,-8.2467,-8.2479,-8.2511,-8.2589,-8.2537,-8.2611,-8.2583,-8.2654,-8.264,-8.276,-8.2776,-8.2776,-8.2771,-8.2782,-8.2782,-8.2807,-8.2792,-8.2756,-8.2754,-8.2752,-8.2751,0,-8.2298,-8.2293,-8.2427,-8.2458,-8.2468,-8.256,-8.2585,-8.2658,-8.2657,-8.2757,-8.2778,-8.2777,-8.2859,-8.2846,-8.2936,-8.2927,-8.3076,-8.3054,-8.3064,-8.3059,-8.3163,-8.3154,-8.3502,-8.3547,-8.3233,-8.3236,-8.3238,0,-8.2451,-8.2539,-8.258,-8.2629,-8.2655,-8.2735,-8.2782,-8.2758,-8.2809,-8.2862,-8.2928,-8.3006,-8.3067,-8.32,-8.3207,-8.3275,-8.3254,-8.3372,-8.3264,-8.3272,-8.3257,-8.3252,-8.3261,-8.3393,-8.3397,-8.34,-8.3402,0,-8.2724,-8.2717,-8.2788,-8.2858,-8.2916,-8.2969,-8.3017,-8.306,-8.3041,-8.31,-8.3184,-8.3232,-8.3325,-8.3403,-8.3467,-8.3486,-8.3441,-8.3436,-8.3464,-8.3475,-8.3478,-8.3478,-8.3122,-8.3428,-8.3425,-8.3424,-8.3422,-8.3421,-8.2923,-8.2998,-8.3039,-8.312,-8.3154,-8.32,-8.327,-8.328,-8.335,-8.3426,-8.3407,-8.3503,-8.354,-8.3623,-8.3649,-8.3722,-8.3679,-8.3719,-8.3729,-8.3739,-8.3752,-8.3466,-8.3734,-8.3733,-8.3732,-8.3731,-8.3731,0,-8.3194,-8.3217,-8.3292,-8.3362,-8.3425,-8.3379,-8.343,-8.3485,-8.3571,-8.3611,-8.3673,-8.377,-8.3845,-8.3858,-8.3929,-8.3985,-8.3966,-8.4004,-8.4,-8.4005,-8.3787,-8.3756,-8.4018,-8.4018,-8.4018,-8.4018,-8.4018,-8.4018,-8.3342,-8.3467,-8.3466,-8.3607,-8.3628,-8.3724,-8.3757,-8.3799,-8.3831,-8.3943,-8.4006,-8.4014,-8.4044,-8.4116,-8.4183,-8.4184,-8.4213,-8.426,-8.4254,-8.4049,-8.4021,-8.3993,-8.3964,-8.4266,-8.4267,-8.4466,-8.4468,-8.4469]}]]